User: anonymous   Login
Location: Unspecified
(0.0000°N, 0.0000°E)
Time: 17:34:35
(UTC+02:00)
Language:

Cosmos 1315 Rocket - Orbit

View from above orbital plane
View from above orbital plane
View from above satellite
View from above satellite

Ground track
Ground track

The orbit data is extracted from the following two-line orbital elements,

1 12904U 81103B   15116.88057262  .00002540  00000-0  18049-3 0  9997
2 12904 081.1768 088.3528 0030259 116.6591 243.7736 15.03997896375173
Epoch (UTC): 26 April 2015 21:08:01
Eccentricity: 0.0030259
inclination: 81.1768°
perigee height: 533 km
apogee height: 575 km
right ascension of ascending node: 88.3528°
argument of perigee: 116.6591°
revolutions per day: 15.03997896
mean anomaly at epoch: 243.7736°
orbit number at epoch: 37517

The dashed part of the orbit path shows where the satellite is in the earth's shadow,  

DLR